Location: Dötzum
(52.0808°N, 9.8063°E)
Time: 05:10:07
(UTC+00:00)

S3M - Pass Details

Date: 27 May 2022
Orbit: 948 x 1005 km, 83.0° (Epoch: 26 June)

Event Time Altitude Azimuth Distance (km) Brightness Sun altitude
Exits shadow 00:24:09 21° 207° (SSW) 2,065 5.1 -15.2°
Maximum altitude 00:28:28 64° 284° (WNW) 1,105 4.2 -15.1°
Drops below altitude 10° 00:34:48 10° 6° (N) 2,769 7.7 -14.8°
Sets 00:37:22 0° 9° (N) 3,714 8.8 -14.6°
